When you browse on this site, cookies collect data to enhance your experience and personalize the content and advertising you see.
Visit our Privacy Policy to learn more. By continuing to use the site, you agree to this use of cookies and data.
  • In Hungary
  • List of Countries
  • For 7 days
  • Water Temperature
  • Satellite Maps
  • Weather Map
  • News
  • Weather Widgets
  • user-avatar
    Login

    Hourly Weather Shymkent

    Today, 18 November, Sunday

    Time Temperature Precipitation Wind Pressure Humidity
    00:00 +4°C° 0 mm 1 mps 719 mmHg 27%
    01:00 +4°C° 0 mm 1 mps 720 mmHg 27%
    02:00 +3°C° 0 mm 1 mps 720 mmHg 27%
    03:00 +3°C° 0 mm 1 mps 720 mmHg 27%
    04:00 +3°C° 0 mm 1 mps 720 mmHg 27%
    05:00 +3°C° 0 mm 1 mps 720 mmHg 27%
    06:00 +3°C° 0 mm 1 mps 721 mmHg 27%
    07:00 +3°C° 0 mm 1 mps 721 mmHg 26%
    08:00 +3°C° 0 mm 1 mps 721 mmHg 26%
    09:00 +5°C° 0 mm 1 mps 721 mmHg 25%
    10:00 +7°C° 0 mm 1 mps 722 mmHg 23%
    11:00 +10°C° 0 mm 1 mps 722 mmHg 22%
    12:00 +10°C° 0 mm 1 mps 722 mmHg 22%
    13:00 +10°C° 0 mm 2 mps 722 mmHg 21%
    14:00 +10°C° 0 mm 2 mps 721 mmHg 21%
    15:00 +9°C° 0 mm 2 mps 721 mmHg 23%
    16:00 +8°C° 0 mm 1 mps 721 mmHg 25%
    17:00 +6°C° 0 mm 1 mps 721 mmHg 27%
    18:00 +6°C° 0 mm 1 mps 721 mmHg 27%
    19:00 +5°C° 0 mm 1 mps 722 mmHg 27%
    20:00 +5°C° 0 mm 1 mps 722 mmHg 28%
    21:00 +5°C° 0 mm 1 mps 722 mmHg 28%
    22:00 +5°C° 0 mm 1 mps 722 mmHg 28%
    23:00 +4°C° 0 mm 2 mps 722 mmHg 28%

    Tomorrow, 19 November, Monday

    Time Temperature Precipitation Wind Pressure Humidity
    00:00 +4°C° 0 mm 2 mps 721 mmHg 27%
    01:00 +4°C° 0 mm 2 mps 721 mmHg 27%
    02:00 +4°C° 0 mm 2 mps 721 mmHg 27%
    03:00 +4°C° 0 mm 2 mps 721 mmHg 27%
    04:00 +3°C° 0 mm 2 mps 721 mmHg 27%
    05:00 +3°C° 0 mm 2 mps 721 mmHg 26%
    06:00 +4°C° 0 mm 2 mps 721 mmHg 26%
    07:00 +4°C° 0 mm 2 mps 721 mmHg 26%
    08:00 +4°C° 0 mm 2 mps 721 mmHg 25%
    09:00 +6°C° 0 mm 2 mps 721 mmHg 24%
    10:00 +10°C° 0 mm 1 mps 721 mmHg 23%
    11:00 +12°C° 0 mm 1 mps 721 mmHg 22%
    12:00 +12°C° 0 mm 1 mps 721 mmHg 22%
    13:00 +13°C° 0 mm 1 mps 721 mmHg 22%
    14:00 +14°C° 0 mm 1 mps 720 mmHg 22%
    15:00 +12°C° 0 mm 1 mps 720 mmHg 24%
    16:00 +11°C° 0 mm 1 mps 720 mmHg 26%
    17:00 +10°C° 0 mm 1 mps 720 mmHg 28%
    18:00 +10°C° 0 mm 1 mps 719 mmHg 28%
    19:00 +9°C° 0 mm 1 mps 719 mmHg 28%
    20:00 +9°C° 0 mm 1 mps 719 mmHg 28%
    21:00 +9°C° 0 mm 1 mps 719 mmHg 28%
    22:00 +9°C° 0 mm 1 mps 719 mmHg 29%
    23:00 +9°C° 0 mm 1 mps 718 mmHg 29%

    Day after tomorrow, 20 November, Tuesday

    Time Temperature Precipitation Wind Pressure Humidity
    00:00 +9°C° 0.1 mm 1 mps 718 mmHg 33%
    01:00 +9°C° 0.1 mm 1 mps 718 mmHg 38%
    02:00 +7°C° 0.1 mm 2 mps 718 mmHg 43%
    03:00 +7°C° 0.5 mm 2 mps 719 mmHg 52%
    04:00 +6°C° 0.5 mm 2 mps 719 mmHg 61%
    05:00 +5°C° 0.5 mm 2 mps 719 mmHg 71%
    06:00 +4°C° 1.2 mm 3 mps 720 mmHg 75%
    07:00 +4°C° 1.2 mm 4 mps 720 mmHg 79%
    08:00 +4°C° 1.2 mm 4 mps 721 mmHg 83%
    09:00 +3°C° 0.4 mm 5 mps 721 mmHg 83%
    10:00 +5°C° 0.4 mm 5 mps 721 mmHg 82%
    11:00 +4°C° 0.4 mm 6 mps 722 mmHg 82%
    12:00 +5°C° 0.1 mm 6 mps 722 mmHg 80%
    13:00 +5°C° 0.1 mm 6 mps 722 mmHg 78%
    14:00 +5°C° 0.1 mm 7 mps 722 mmHg 76%
    15:00 +5°C° 0.1 mm 6 mps 722 mmHg 77%
    16:00 +6°C° 0.1 mm 5 mps 722 mmHg 77%
    17:00 +5°C° 0.1 mm 4 mps 722 mmHg 77%
    18:00 +4°C° 0 mm 4 mps 723 mmHg 78%
    19:00 +4°C° 0 mm 3 mps 723 mmHg 79%
    20:00 +3°C° 0 mm 3 mps 723 mmHg 80%
    21:00 +4°C° 0 mm 2 mps 723 mmHg 79%
    22:00 +4°C° 0 mm 2 mps 723 mmHg 77%
    23:00 +3°C° 0 mm 2 mps 723 mmHg 76%

    21 November, Wednesday

    Time Temperature Precipitation Wind Pressure Humidity
    00:00 +3°C° 0 mm 2 mps 723 mmHg 75%
    01:00 +4°C° 0 mm 1 mps 722 mmHg 74%
    02:00 +4°C° 0 mm 1 mps 722 mmHg 73%
    03:00 +4°C° 0 mm 1 mps 722 mmHg 71%
    04:00 +3°C° 0 mm 2 mps 721 mmHg 70%
    05:00 +3°C° 0 mm 2 mps 721 mmHg 69%
    06:00 +3°C° 0 mm 2 mps 721 mmHg 68%
    07:00 +4°C° 0 mm 2 mps 720 mmHg 66%
    08:00 +5°C° 0 mm 1 mps 720 mmHg 65%
    09:00 +7°C° 0 mm 1 mps 720 mmHg 62%
    10:00 +8°C° 0 mm 1 mps 720 mmHg 59%
    11:00 +9°C° 0 mm 1 mps 720 mmHg 56%
    12:00 +10°C° 0 mm 1 mps 719 mmHg 56%
    13:00 +10°C° 0 mm 1 mps 719 mmHg 55%
    14:00 +10°C° 0 mm 2 mps 718 mmHg 54%
    15:00 +10°C° 0 mm 1 mps 718 mmHg 58%
    16:00 +9°C° 0 mm 1 mps 717 mmHg 62%
    17:00 +8°C° 0 mm 1 mps 717 mmHg 66%
    18:00 +8°C° 0 mm 1 mps 717 mmHg 66%
    19:00 +7°C° 0 mm 1 mps 717 mmHg 65%
    20:00 +7°C° 0 mm 1 mps 717 mmHg 64%
    21:00 +7°C° 0 mm 1 mps 717 mmHg 63%
    22:00 +7°C° 0 mm 1 mps 716 mmHg 62%
    23:00 +7°C° 0 mm 1 mps 716 mmHg 61%

    22 November, Thursday

    Time Temperature Precipitation Wind Pressure Humidity
    00:00 +7°C° 0 mm 1 mps 716 mmHg 60%
    01:00 +7°C° 0 mm 1 mps 716 mmHg 60%
    02:00 +8°C° 0 mm 1 mps 716 mmHg 60%
    03:00 +8°C° 0.1 mm 1 mps 716 mmHg 61%
    04:00 +8°C° 0.1 mm 1 mps 716 mmHg 63%
    05:00 +8°C° 0.1 mm 1 mps 715 mmHg 64%
    06:00 +8°C° 0.3 mm 1 mps 715 mmHg 66%
    07:00 +8°C° 0.3 mm 1 mps 715 mmHg 69%
    08:00 +7°C° 0.3 mm 2 mps 716 mmHg 71%
    09:00 +8°C° 0.4 mm 2 mps 716 mmHg 71%
    10:00 +8°C° 0.4 mm 3 mps 716 mmHg 71%
    11:00 +8°C° 0.4 mm 4 mps 716 mmHg 72%
    12:00 +8°C° 0.9 mm 4 mps 716 mmHg 74%
    13:00 +8°C° 0.9 mm 4 mps 716 mmHg 77%
    14:00 +8°C° 0.9 mm 4 mps 715 mmHg 79%
    15:00 +7°C° 0.9 mm 4 mps 715 mmHg 81%
    16:00 +7°C° 0.9 mm 4 mps 716 mmHg 82%
    17:00 +7°C° 0.9 mm 4 mps 716 mmHg 83%
    18:00 +7°C° 0.5 mm 4 mps 716 mmHg 81%
    19:00 +7°C° 0.5 mm 4 mps 717 mmHg 79%
    20:00 +8°C° 0.5 mm 4 mps 717 mmHg 77%
    21:00 +8°C° 0.1 mm 4 mps 717 mmHg 74%
    22:00 +8°C° 0.1 mm 4 mps 717 mmHg 71%
    23:00 +8°C° 0.1 mm 5 mps 717 mmHg 68%

    23 November, Friday

    Time Temperature Precipitation Wind Pressure Humidity
    00:00 +8°C° 0 mm 5 mps 717 mmHg 67%
    01:00 +7°C° 0 mm 5 mps 717 mmHg 67%
    02:00 +7°C° 0 mm 5 mps 717 mmHg 66%
    03:00 +8°C° 0 mm 5 mps 717 mmHg 65%
    04:00 +8°C° 0 mm 5 mps 717 mmHg 64%
    05:00 +8°C° 0 mm 5 mps 717 mmHg 64%
    06:00 +8°C° 0.1 mm 5 mps 717 mmHg 64%
    07:00 +8°C° 0.1 mm 5 mps 717 mmHg 64%
    08:00 +8°C° 0.1 mm 5 mps 717 mmHg 64%
    09:00 +9°C° 0.2 mm 5 mps 717 mmHg 62%
    10:00 +10°C° 0.2 mm 5 mps 717 mmHg 60%
    11:00 +12°C° 0.2 mm 5 mps 717 mmHg 58%
    12:00 +13°C° 0.2 mm 5 mps 716 mmHg 56%
    13:00 +13°C° 0.2 mm 5 mps 716 mmHg 54%
    14:00 +14°C° 0.2 mm 5 mps 715 mmHg 52%
    15:00 +13°C° 0.4 mm 5 mps 715 mmHg 55%
    16:00 +12°C° 0.4 mm 5 mps 715 mmHg 59%
    17:00 +12°C° 0.4 mm 5 mps 715 mmHg 62%
    18:00 +10°C° 0.8 mm 5 mps 715 mmHg 65%
    19:00 +10°C° 0.8 mm 5 mps 715 mmHg 68%
    20:00 +10°C° 0.8 mm 5 mps 715 mmHg 71%
    21:00 +10°C° 0.8 mm 6 mps 715 mmHg 73%
    22:00 +10°C° 0.8 mm 6 mps 715 mmHg 75%
    23:00 +10°C° 0.8 mm 7 mps 715 mmHg 77%
    Show more